Weather History for Wichita Jabara, KS

Change the Weather History Date:

Monday, January 16, 2012

  Actual Average (KICT) Record (KICT)
Temperature  
Mean Temperature 44 °F 32 °F  
Max Temperature 55 °F 42 °F 72 °F (1894)
Min Temperature 28 °F 22 °F -5 °F (1930)
Degree Days  
Heating Degree Days 20 33  
Month to date heating degree days 528  
Since 1 July heating degree days 2371  
Cooling Degree Days 0 0  
Month to date cooling degree days 0  
Year to date cooling degree days 0  
Moisture  
Dew Point 33 °F    
Average Humidity 59    
Maximum Humidity 82    
Minimum Humidity 35    
Precipitation  
Precipitation 0.00 in 0.03 in 0.62 in (1990)
Month to date precipitation 0.38  
Year to date precipitation 0.38  
Snow  
Snow 0.00 in 0.10 in 3.50 in (1987)
Month to date snowfall 1.7  
Since 1 July snowfall 7.3  
Snow Depth -    
Sea Level Pressure  
Sea Level Pressure 29.72 in    
Wind  
Wind Speed 19 mph (West)    
Max Wind Speed 26 mph    
Max Gust Speed 34 mph    
Visibility 10 miles    
Events Rain    
T = Trace of Precipitation, MM = Missing Value Source: NWS Daily Summary

Daily Weather History Graph

Daily Weather History Graph

Search for Another Location

Airport:

Trip Planner

Search our weather history database for the weather conditions in past years. The results will help you decide how hot, cold, wet, or windy it might be!

Date:

Astronomy

Jan. 16, 2012 Rise Set
Actual Time 7:42 AM CST 5:34 PM CST
Civil Twilight 7:14 AM CST 6:03 PM CST
Nautical Twilight 6:41 AM CST 6:35 PM CST
Astronomical Twilight 6:10 AM CST 7:06 PM CST
Moon 12:55 AM CST (1/16) 11:47 AM CST (1/16)
Length of Visible Light 10h 48m
Length of Day
9h 51m
Last Quarter, 46% of the Moon is Illuminated
Jan 16
Last Quarter
Jan 23
New
Jan 30
First Quarter
Feb 7
Full
Feb 14
Last Quarter

Hourly Weather History & Observations

Time (CST) Temp. Windchill Dew Point Humidity Pressure Visibility Wind Dir Wind Speed Gust Speed Precip Events Conditions
12:54 AM 52.0 °F - 43.0 °F 71% 29.70 in 10.0 mi South 24.2 mph 32.2 mph N/A   Clear
1:54 AM 53.1 °F - 44.1 °F 71% 29.68 in 10.0 mi South 23.0 mph 32.2 mph N/A   Clear
2:54 AM 54.0 °F - 44.1 °F 69% 29.67 in 10.0 mi South 20.7 mph 29.9 mph N/A   Clear
3:54 AM 53.1 °F - 43.0 °F 69% 29.66 in 10.0 mi SSW 21.9 mph 28.8 mph N/A   Clear
4:54 AM 52.0 °F - 42.1 °F 69% 29.65 in 10.0 mi SSW 21.9 mph 33.4 mph N/A   Clear
5:54 AM 51.1 °F - 39.0 °F 63% 29.66 in 10.0 mi SSW 23.0 mph 28.8 mph N/A   Clear
6:54 AM 50.0 °F - 35.1 °F 57% 29.69 in 10.0 mi SW 20.7 mph - N/A   Clear
7:54 AM 48.0 °F - 32.0 °F 54% 29.70 in 10.0 mi SW 17.3 mph - N/A   Clear
9:54 AM 48.9 °F - 26.1 °F 41% 29.75 in 10.0 mi WSW 19.6 mph 26.5 mph N/A   Clear
10:54 AM 51.1 °F - 26.1 °F 38% 29.76 in 10.0 mi SW 15.0 mph - N/A   Clear
11:54 AM 52.0 °F - 26.1 °F 37% 29.75 in 10.0 mi WSW 16.1 mph - N/A   Clear
12:54 PM 54.0 °F - 27.0 °F 35% 29.72 in 10.0 mi SW 11.5 mph - N/A   Clear
1:54 PM 55.0 °F - 28.0 °F 35% 29.70 in 10.0 mi West 13.8 mph 17.3 mph N/A   Clear
2:54 PM 54.0 °F - 28.9 °F 38% 29.70 in 10.0 mi WNW 9.2 mph - N/A   Clear
3:54 PM 50.0 °F - 28.9 °F 44% 29.70 in 10.0 mi NW 10.4 mph - N/A   Clear
4:54 PM 48.9 °F - 30.0 °F 48% 29.70 in 10.0 mi NNW 10.4 mph - N/A   Clear
5:54 PM 42.1 °F 37.1 °F 28.9 °F 60% 29.71 in 10.0 mi North 8.1 mph - N/A   Clear
6:54 PM 43.0 °F 38.2 °F 34.0 °F 71% 29.75 in 10.0 mi NW 8.1 mph - 0.00 in Rain Light Rain
7:54 PM 39.9 °F 33.4 °F 34.0 °F 79% 29.72 in 10.0 mi NNE 10.4 mph - 0.00 in   Mostly Cloudy
8:54 PM 37.9 °F 31.5 °F 32.0 °F 79% 29.73 in 10.0 mi North 9.2 mph - N/A   Mostly Cloudy
9:54 PM 35.1 °F 28.6 °F 30.0 °F 82% 29.73 in 10.0 mi NNE 8.1 mph - N/A   Clear
10:54 PM 34.0 °F 22.7 °F 28.0 °F 79% 29.78 in 10.0 mi NNW 19.6 mph 26.5 mph N/A   Clear
11:54 PM 28.9 °F 14.3 °F 21.0 °F 72% 29.86 in 10.0 mi North 26.5 mph 34.5 mph N/A   Partly Cloudy